TimeCDT,TemperatureF,Dew PointF,Humidity,Sea Level PressureIn,VisibilityMPH,Wind Direction,Wind SpeedMPH,Gust SpeedMPH,PrecipitationIn,Events,Conditions,WindDirDegrees,DateUTC
12:55 AM,34.0,27.0,75,30.09,10.0,WNW,5.8,-,N/A,,Clear,290,2011-10-21 05:55:00
1:55 AM,33.8,26.6,75,30.08,10.0,West,6.9,-,N/A,,Clear,270,2011-10-21 06:55:00
2:55 AM,33.1,27.0,78,30.11,10.0,West,5.8,-,N/A,,Clear,280,2011-10-21 07:55:00
3:55 AM,32.0,27.0,82,30.11,10.0,WNW,5.8,-,N/A,,Clear,290,2011-10-21 08:55:00
4:55 AM,33.1,27.0,78,30.12,10.0,WNW,4.6,-,N/A,,Clear,290,2011-10-21 09:55:00
5:55 AM,30.9,26.1,82,30.14,10.0,WNW,4.6,-,N/A,,Clear,290,2011-10-21 10:55:00
6:55 AM,28.4,24.8,86,30.12,10.0,West,5.8,-,N/A,,Clear,280,2011-10-21 11:55:00
7:55 AM,30.9,26.1,82,30.17,10.0,WNW,4.6,-,N/A,,Clear,290,2011-10-21 12:55:00
8:55 AM,39.0,30.9,73,30.20,10.0,West,5.8,-,N/A,,Clear,280,2011-10-21 13:55:00
9:55 AM,46.0,32.0,58,30.20,10.0,WSW,4.6,-,N/A,,Clear,250,2011-10-21 14:55:00
10:55 AM,48.9,32.0,52,30.20,10.0,West,4.6,-,N/A,,Clear,280,2011-10-21 15:55:00
11:55 AM,54.0,30.9,41,30.19,10.0,Variable,6.9,-,N/A,,Clear,0,2011-10-21 16:55:00
12:55 PM,57.9,30.9,36,30.16,10.0,Variable,4.6,-,N/A,,Clear,0,2011-10-21 17:55:00
1:55 PM,59.0,32.0,36,30.14,10.0,WNW,6.9,-,N/A,,Clear,290,2011-10-21 18:55:00
2:55 PM,61.0,33.1,35,30.12,10.0,Variable,4.6,-,N/A,,Clear,0,2011-10-21 19:55:00
3:55 PM,62.1,33.1,34,30.11,10.0,Variable,6.9,-,N/A,,Clear,0,2011-10-21 20:55:00
4:55 PM,62.1,33.1,34,30.11,10.0,SW,4.6,-,N/A,,Clear,230,2011-10-21 21:55:00
5:55 PM,57.2,33.8,41,30.09,10.0,SSW,4.6,-,N/A,,Clear,200,2011-10-21 22:55:00
6:55 PM,50.0,34.0,54,30.13,10.0,South,3.5,-,N/A,,Clear,190,2011-10-21 23:55:00
7:55 PM,46.0,33.1,61,30.13,10.0,SSE,4.6,-,N/A,,Clear,160,2011-10-22 00:55:00
8:55 PM,44.1,33.1,65,30.12,10.0,South,3.5,-,N/A,,Clear,190,2011-10-22 01:55:00
9:55 PM,44.1,33.1,65,30.12,10.0,South,4.6,-,N/A,,Clear,190,2011-10-22 02:55:00
10:55 PM,44.1,33.1,65,30.11,10.0,SSW,4.6,-,N/A,,Clear,200,2011-10-22 03:55:00
11:55 PM,44.1,33.1,65,30.10,10.0,SSW,5.8,-,N/A,,Clear,200,2011-10-22 04:55:00